Location: Bagnara
(41.0500°N, 14.7833°E)
Time: 16:35:44
(UTC+00:00)

Cosmos 841 Rocket - Pass Details

Date: 20 June 2021
Orbit: 747 x 772 km, 74.0° (Epoch: 31 July)

Event Time Altitude Azimuth Distance (km) Brightness Sun altitude
Exits shadow 00:22:55 60° 199° (SSW) 855 3.4 -22.9°
Maximum altitude 00:23:53 90° 267° (W) 754 3.3 -22.8°
Drops below altitude 10° 00:29:03 10° 19° (NNE) 2,272 7.1 -22.5°
Sets 00:31:24 0° 20° (NNE) 3,199 8.2 -22.3°
